[[{"header":{"parameterUnit":"m.s-1","parameterCategory":1,"la1":30.2992,"la2":30.254,"lo1":-89.0895,"lo2":-89.0443,"dy":0.0025,"dx":0.0025,"nx":19,"ny":19,"refTime":"2026-04-24T03:00:00:Z","depth":0,"parameterNumber":2,"parameterNumberName":"U-component_of_WINDS"},"data":[0,0,0,-2.3142,-2.3143,-2.3195,-2.3195,-2.3262,-2.3262,0,0,0,0,0,0,0,0,0,0,0,-2.3127,-2.3128,-2.3142,-2.3143,-2.3195,-2.3195,-2.3261,-2.3262,0,0,0,0,0,0,0,0,0,0,0,-2.3127,-2.3128,-2.3128,-2.3144,-2.3195,-2.3195,-2.3261,-2.3222,0,0,0,0,0,0,0,0,0,0,-2.3172,-2.3158,-2.3127,-2.3128,-2.3144,-2.3195,-2.3195,-2.322,-2.3225,-2.3239,0,-2.3251,0,-2.3257,-2.3267,-2.3267,0,0,0,-2.3143,-2.3155,-2.3169,-2.3128,-2.3144,-2.3195,-2.3172,-2.3223,-2.3228,-2.3244,-2.3251,-2.3254,-2.3258,-2.3267,-2.3267,-2.3346,-2.3346,0,0,-2.3141,-2.3137,-2.3165,-2.3172,-2.3163,-2.317,-2.3173,-2.3226,-2.3233,-2.3252,-2.3255,-2.326,-2.3268,-2.3268,-2.3345,-2.3346,0,0,0,-2.3132,-2.3135,-2.3147,-2.3169,-2.3178,-2.3171,-2.3175,-2.3231,-2.3235,-2.3256,-2.326,-2.3268,-2.3269,-2.3345,-2.3345,-2.3358,0,0,0,-2.3131,-2.313,-2.3146,-2.3144,-2.3177,-2.3205,-2.3179,-2.3232,-2.3238,-2.326,-2.3268,-2.3269,-2.3344,-2.3345,-2.3356,-2.3363,0,0,0,-2.3124,-2.3129,-2.3136,-2.3143,-2.3165,-2.3204,-2.3212,-2.3233,-2.3241,-2.3267,-2.327,-2.3344,-2.3345,-2.3355,-2.3362,-2.3381,0,0,0,-2.3115,-2.3148,-2.3137,-2.3175,-2.3165,-2.3212,-2.3211,-2.3247,-2.3272,-2.3268,-2.3344,-2.3345,-2.3355,-2.3361,-2.338,-2.3395,-2.3402,0,0,-2.3154,-2.3152,-2.3175,-2.3167,-2.3214,-2.3205,-2.3255,-2.3281,-2.3288,-2.3326,-2.3328,-2.3357,-2.3362,-2.3381,-2.3444,-2.3449,0,0,0,-2.3186,-2.3202,-2.3215,-2.3238,-2.3259,-2.3277,-2.3297,-2.3307,-2.3339,-2.3307,-2.3371,-2.3374,-2.3385,-2.3392,-2.3397,-2.3406,-2.3349,-2.3349,-2.3349,-2.3233,-2.324,-2.3277,-2.329,-2.3312,-2.3332,-2.335,-2.3367,-2.3368,-2.3383,-2.3394,-2.3431,-2.3439,-2.3443,-2.3452,-2.3404,-2.3404,-2.3405,-2.3405,-2.3288,-2.3311,-2.3312,-2.3348,-2.3355,-2.3386,-2.3407,-2.3407,-2.3436,-2.3424,-2.3434,-2.3418,-2.3448,-2.3457,-2.3406,-2.3405,-2.3405,-2.3405,-2.3405,-2.3318,-2.333,-2.3342,-2.3374,-2.3399,-2.3412,-2.344,-2.3447,-2.3453,-2.3464,-2.3474,-2.3474,-2.3473,-2.3469,-2.3469,-2.3469,-2.3469,-2.347,-2.347,-2.3343,-2.3356,-2.3378,-2.3403,-2.3418,-2.3439,-2.346,-2.3475,-2.3494,-2.3496,-2.3496,-2.3495,-2.3451,-2.3438,-2.3472,-2.3471,-2.3471,-2.3471,-2.3471,-2.3393,-2.3382,-2.3417,-2.3432,-2.3461,-2.3485,-2.3494,-2.3524,-2.3538,-2.3552,-2.3549,-2.3516,-2.3515,-2.3511,-2.35,-2.3548,-2.3548,-2.3548,-2.3548,-2.3416,-2.3416,-2.3452,-2.3476,-2.35,-2.3511,-2.3549,-2.3567,-2.3583,-2.3592,-2.3587,-2.3574,-2.357,-2.3571,-2.3566,-2.3556,-2.3617,-2.3617,-2.3618,-2.3446,-2.3449,-2.3479,-2.3494,-2.3518,-2.3539,-2.3575,-2.3602,-2.3619,-2.362,-2.3598,-2.3596,-2.3575,-2.3569,-2.3567,-2.3559,-2.3541,0,0]},{"header":{"parameterUnit":"m.s-1","parameterCategory":1,"la1":30.2992,"la2":30.254,"lo1":-89.0895,"lo2":-89.0443,"dy":0.0025,"dx":0.0025,"nx":19,"ny":19,"refTime":"2026-04-24T03:00:00:Z","depth":0,"parameterNumber":3,"parameterNumberName":"V-component_of_WINDS"},"data":[0,0,0,4.7599,4.76,4.7661,4.7662,4.7726,4.7727,0,0,0,0,0,0,0,0,0,0,0,4.7573,4.7573,4.7599,4.76,4.7661,4.7662,4.7726,4.7727,0,0,0,0,0,0,0,0,0,0,0,4.7573,4.7573,4.7573,4.76,4.7661,4.7662,4.7726,4.7685,0,0,0,0,0,0,0,0,0,0,4.7628,4.7595,4.7573,4.7573,4.7601,4.7661,4.7662,4.7683,4.7687,4.7693,0,4.7696,0,4.7712,4.773,4.7731,0,0,0,4.7606,4.7591,4.7616,4.7573,4.7601,4.7661,4.7635,4.7686,4.7691,4.7699,4.7697,4.77,4.7713,4.7731,4.7731,4.7746,4.7746,0,0,4.7603,4.7579,4.7612,4.7618,4.7608,4.7633,4.7637,4.7689,4.7685,4.7697,4.7701,4.7715,4.7731,4.7731,4.7746,4.7746,0,0,0,4.7589,4.7576,4.76,4.7615,4.7627,4.7635,4.7639,4.7683,4.7692,4.7702,4.7715,4.7731,4.7732,4.7746,4.7746,4.7714,0,0,0,4.7587,4.7568,4.7598,4.7583,4.7626,4.7656,4.7632,4.7689,4.7695,4.7715,4.7731,4.7733,4.7747,4.7746,4.7715,4.7702,0,0,0,4.7571,4.7566,4.7573,4.7582,4.7608,4.7655,4.7668,4.7691,4.7703,4.7731,4.7733,4.7747,4.7746,4.7716,4.7704,4.7701,0,0,0,4.7547,4.754,4.7572,4.757,4.7607,4.7635,4.7668,4.769,4.771,4.7732,4.7747,4.7746,4.7717,4.7705,4.7702,4.7694,4.7688,0,0,4.7525,4.7537,4.7538,4.7568,4.7584,4.7627,4.764,4.768,4.7703,4.773,4.7731,4.7715,4.7704,4.7701,4.7662,4.7657,0,0,0,4.7523,4.7524,4.7534,4.7552,4.7584,4.7611,4.7652,4.7667,4.7692,4.7712,4.7713,4.7707,4.7706,4.7703,4.7699,4.7701,4.7743,4.7744,4.7744,4.7457,4.749,4.7495,4.7537,4.7554,4.7599,4.7617,4.7645,4.7671,4.7671,4.7679,4.7652,4.7648,4.7645,4.7646,4.7677,4.7677,4.7677,4.7677,4.7429,4.7436,4.7475,4.7494,4.7529,4.7545,4.7589,4.7608,4.7628,4.7648,4.7648,4.7667,4.7639,4.7641,4.7675,4.7675,4.7675,4.7675,4.7676,4.739,4.74,4.742,4.7453,4.7475,4.7517,4.7537,4.7568,4.7597,4.7598,4.7611,4.7612,4.7617,4.7602,4.7602,4.7602,4.7602,4.7602,4.7602,4.7342,4.7366,4.7379,4.7415,4.7433,4.746,4.7508,4.7526,4.7555,4.7576,4.7576,4.7604,4.763,4.7636,4.76,4.76,4.7601,4.7601,4.7601,4.7302,4.7317,4.7336,4.7355,4.7402,4.7423,4.7464,4.7499,4.7519,4.7528,4.7557,4.7571,4.7584,4.7588,4.7593,4.7549,4.7549,4.7549,4.7549,4.727,4.7281,4.731,4.7338,4.7368,4.7408,4.7431,4.7469,4.751,4.7525,4.7536,4.7546,4.7548,4.756,4.7565,4.757,4.7521,4.7521,4.7521,4.7249,4.7265,4.7277,4.7319,4.7359,4.7393,4.7416,4.7447,4.7496,4.7521,4.7538,4.7539,4.7555,4.7559,4.7582,4.7587,4.7598,0,0]}]]